Home   Weather   Novorossiysk   Past weeks

Flag for Russia Past Weather in Novorossiysk, Russia — Yesterday and Last 2 Weeks

Now
86 °F

Passing clouds.


Feels Like: 89 °F
Forecast: 72 / 85 °F
Wind: 10 mph from East

Location: Anapa / Vitiazevo

Current Time: Aug 21, 2017 at 11:37:14 am

Latest Report: Aug 21, 2017 at 11:00 am


Visibility: N/A

Pressure: 29.77 "Hg

Humidity: 55%

Dew Point: 68 °F

Location of NovorossiyskLocation

Past Weather in Novorossiysk — Graph

°F

Novorossiysk Temperature Yesterday

Maximum temperature yesterday: 91 °F (at 1:30 pm)
Minimum temperature yesterday: 68 °F (at 5:30 am)
Average temperature yesterday: 78 °F

High & Low Weather Summary for the Past Weeks

 TemperatureHumidityPressure
High97 °F (Aug 10, 3:30 pm)100% (Aug 9, 4:30 am)29.98 "Hg (Aug 9, 4:30 am)
Low64 °F (Aug 21, 3:00 am)26% (Aug 16, 3:00 pm)29.65 "Hg (Aug 13, 2:00 am)
Average79 °F63%29.84 "Hg
* Reported Aug 8 3:30 pm — Aug 21 10:30 am, Novorossiysk. Weather by CustomWeather, © 2017

Note: Actual official high and low records may vary slightly from our data, if they occured in-between our weather recording intervals... More about our weather records

Advertising

Novorossiysk Weather History for the Previous 24 Hours

Scroll right to see more
 ConditionsComfort  
Time TempWeatherWind HumidityBarometerVisibility
10:30 am
Mon, Aug 21
84 °FSunny.10 mph58%29.77 "Hg10 mi
10:00 am84 °FSunny.10 mph58%29.80 "Hg10 mi
9:30 am82 °FPassing clouds.10 mph58%29.80 "HgN/A
9:00 am79 °FPassing clouds.13 mph65%29.80 "HgN/A
8:30 am77 °FSunny.13 mph69%29.80 "Hg10 mi
8:00 am75 °FSunny.13 mph74%29.80 "Hg10 mi
7:30 am73 °FSunny.8 mph74%29.80 "Hg10 mi
7:00 am72 °FSunny.10 mph73%29.80 "HgN/A
6:30 am70 °FSunny.6 mph73%29.80 "Hg6 mi
6:00 am66 °FSunny.3 mph83%29.80 "HgN/A
5:30 am68 °FClear.3 mph73%29.80 "HgN/A
5:00 am66 °FClear.8 mph83%29.80 "HgN/A
4:30 am66 °FClear.10 mph83%29.80 "HgN/A
4:00 am68 °FClear.3 mph83%29.80 "HgN/A
3:00 am64 °FClear.6 mph94%29.83 "HgN/A
2:30 am70 °FClear.1 mph78%29.83 "HgN/A
2:00 am70 °FClear.1 mph78%29.83 "HgN/A
1:30 am70 °FClear.10 mph83%29.83 "HgN/A
1:00 am70 °FClear.10 mph83%29.83 "HgN/A
12:30 am70 °FClear.8 mph83%29.86 "HgN/A
12:00 am72 °FClear.10 mph78%29.86 "HgN/A
11:30 pm
Sun, Aug 20
68 °FPassing clouds.6 mph88%29.83 "HgN/A
11:00 pm70 °FPassing clouds.8 mph83%29.83 "HgN/A
10:30 pm70 °FPassing clouds.6 mph78%29.83 "HgN/A
10:00 pm72 °FPassing clouds.3 mph78%29.86 "HgN/A
9:30 pm72 °FPassing clouds.3 mph78%29.86 "HgN/A
9:00 pm72 °FPassing clouds.1 mph83%29.86 "HgN/A
8:30 pm73 °FPassing clouds.1 mph78%29.86 "HgN/A
8:00 pm73 °FPassing clouds.6 mph83%29.86 "HgN/A
7:30 pm79 °FPassing clouds.6 mph61%29.86 "HgN/A
7:00 pm79 °FPassing clouds.1 mph70%29.86 "HgN/A
6:30 pm82 °FScattered clouds.6 mph62%29.86 "HgN/A
6:00 pm82 °FThunderstorms. Partly sunny.10 mph58%29.86 "HgN/A
5:30 pm79 °FThunderstorms. Partly sunny.15 mph58%29.89 "HgN/A
5:00 pm86 °FThunderstorms. Scattered clouds.10 mph49%29.89 "HgN/A
4:30 pm88 °FPassing clouds.8 mph52%29.86 "HgN/A
4:00 pm88 °FPassing clouds.8 mph52%29.86 "HgN/A
3:30 pm88 °FPassing clouds.8 mph49%29.86 "HgN/A
3:00 pm90 °FPassing clouds.10 mph46%29.86 "HgN/A
2:30 pm90 °FPassing clouds.8 mph46%29.86 "HgN/A
2:00 pm91 °FPassing clouds.6 mph41%29.89 "HgN/A
1:30 pm91 °FSunny.6 mph44%29.89 "Hg10 mi
1:00 pm90 °FPassing clouds.8 mph46%29.89 "HgN/A
12:30 pm90 °FPassing clouds.10 mph46%29.89 "HgN/A
12:00 pm88 °FPassing clouds.13 mph49%29.89 "HgN/A
11:30 am86 °FPassing clouds.13 mph52%29.89 "HgN/A
11:00 am82 °FSunny.15 mph55%29.89 "Hg10 mi
Weather by CustomWeather, © 2017

See weather overviewHow to use our weather pages